Location: Zapote
(9.9191°N, 84.0597°W)
Time: 04:06:24
(UTC-06:00)

Hubble Space Telescope - Pass Details

Date: 27 January 2021
Orbit: 536 x 539 km, 28.5° (Epoch: 28 February)

Event Time Altitude Azimuth Distance (km) Brightness Sun altitude
Rises 18:49:53 0° 312° (NW) 2,669 4.8 -17.4°
Reaches altitude 10° 18:52:23 10° 324° (NW) 1,779 3.7 -18.0°
Enters shadow 18:55:41 28° 17° (NNE) 1,020 1.9 -18.8°
